Location: Bieujac
(44.5398°N, 0.1549°W)
Time: 03:19:53
(UTC+00:00)

Cosmos 2082 Rocket - Pass Details

Date: 17 November 2019
Orbit: 833 x 854 km, 71.0° (Epoch: 07 December)

Event Time Altitude Azimuth Distance (km) Brightness Sun altitude
Exits shadow 04:25:28 45° 352° (N) 1,145 2.7 -27.3°
Drops below altitude 10° 04:29:40 10° 19° (NNE) 2,490 4.8 -26.5°
Sets 04:32:10 0° 23° (NNE) 3,427 5.6 -26.1°
